Weather History for KBDR - February, 2014

Change the Weather History Date:

Friday, February 21, 2014

  Actual Average Record
Temperature  
Mean Temperature 41 °F 34 °F  
Max Temperature 47 °F 41 °F 59 °F (2002)
Min Temperature 34 °F 26 °F 1 °F (1950)
Degree Days  
Heating Degree Days 24 32  
Month to date heating degree days 752 697  
Since 1 July heating degree days 3796 3673  
Cooling Degree Days 0 0  
Month to date cooling degree days 0 0  
Year to date cooling degree days 0 0  
Moisture  
Dew Point 38 °F    
Average Humidity 96    
Maximum Humidity 100    
Minimum Humidity 92    
Precipitation  
Precipitation 0.12 in 0.10 in 1.40 in (1951)
Month to date precipitation 4.18 2.00  
Year to date precipitation 6.96 5.10  
Snow  
Snow 0.00 in 0.30 in 5.50 in (2005)
Month to date snowfall 32.1 6.1  
Since 1 July snowfall 56.2 19.6  
Snow Depth 11.00 in    
Sea Level Pressure  
Sea Level Pressure 29.88 in    
Wind  
Wind Speed 9 mph (ENE)    
Max Wind Speed 18 mph    
Max Gust Speed 26 mph    
Visibility 3 miles    
Events Fog , Rain    
T = Trace of Precipitation, MM = Missing Value Source: NWS Daily Summary

Daily Weather History Graph

Daily Weather History Graph

Search for Another Location

Airport or City:

Trip Planner

Search our weather history database for the weather conditions in past years. The results will help you decide how hot, cold, wet, or windy it might be!

Date:

Astronomy

Feb. 21, 2014 Rise Set
Actual Time 6:38 AM EST 5:33 PM EST
Civil Twilight 6:10 AM EST 6:01 PM EST
Nautical Twilight 5:38 AM EST 6:34 PM EST
Astronomical Twilight 5:06 AM EST 7:05 PM EST
Moon No Moon Rise 9:57 AM EST (2/21)
Length of Visible Light 11h 51m
Length of Day
10h 55m
Waning Gibbous, 61% of the Moon is Illuminated
Feb 21
Waning Gibbous
Feb 22
Last Quarter
Mar 1
New
Mar 8
First Quarter
Mar 16
Full

Hourly Weather History & Observations

Time (EST) Temp. Windchill Dew Point Humidity Pressure Visibility Wind Dir Wind Speed Gust Speed Precip Events Conditions
12:03 AM 37.0 °F 30.4 °F 36.0 °F 96% 30.08 in 4.0 mi NE 9.2 mph - 0.00 in Rain Light Rain
12:34 AM 37.0 °F 29.8 °F 36.0 °F 96% 30.06 in 4.0 mi ENE 10.4 mph - 0.01 in   Overcast
12:52 AM 37.0 °F 29.8 °F 36.0 °F 96% 30.06 in 2.5 mi ENE 10.4 mph - 0.01 in   Overcast
1:52 AM 37.0 °F 28.9 °F 36.0 °F 96% 30.03 in 2.0 mi ENE 12.7 mph - N/A   Overcast
5:41 AM 37.0 °F 28.9 °F 36.0 °F 96% 29.99 in 2.0 mi ENE 12.7 mph - N/A   Overcast
5:52 AM 37.0 °F 29.8 °F 36.0 °F 96% 30.00 in 1.5 mi ENE 10.4 mph - N/A   Overcast
6:52 AM 36.0 °F 30.3 °F 36.0 °F 100% 29.99 in 1.5 mi NNE 6.9 mph - N/A   Overcast
7:08 AM 36.0 °F 28.0 °F 36.0 °F 100% 29.99 in 0.8 mi NE 11.5 mph - N/A   Overcast
7:22 AM 36.0 °F 26.0 °F 36.0 °F 100% 29.98 in 1.0 mi ENE 17.3 mph - N/A   Overcast
7:52 AM 36.0 °F 27.1 °F 35.1 °F 97% 29.98 in 1.0 mi ENE 13.8 mph - N/A   Overcast
8:49 AM 35.6 °F 28.6 °F 35.6 °F 100% 29.98 in 1.0 mi NE 9.2 mph - N/A   Overcast
8:52 AM 36.0 °F 28.5 °F 36.0 °F 100% 29.98 in 1.0 mi NE 10.4 mph - N/A   Overcast
9:22 AM 37.0 °F 29.8 °F 36.0 °F 96% 29.96 in 2.0 mi ENE 10.4 mph - 0.00 in Rain Light Rain
9:33 AM 37.0 °F 29.8 °F 36.0 °F 96% 29.95 in 1.8 mi ENE 10.4 mph - 0.00 in Rain Light Rain
9:52 AM 36.0 °F 28.0 °F 36.0 °F 100% 29.94 in 2.0 mi ENE 11.5 mph - 0.01 in Rain Light Rain
10:11 AM 37.0 °F 29.8 °F 36.0 °F 96% 29.93 in 3.0 mi ENE 10.4 mph - 0.00 in   Overcast
10:21 AM 37.0 °F 31.6 °F 37.0 °F 100% 29.93 in 4.0 mi ENE 6.9 mph - 0.00 in   Overcast
10:52 AM 37.0 °F 31.6 °F 36.0 °F 96% 29.93 in 3.0 mi East 6.9 mph - 0.01 in   Overcast
11:06 AM 37.0 °F 33.3 °F 37.0 °F 100% 29.93 in 2.5 mi East 4.6 mph - 0.00 in Rain Light Rain
11:23 AM 37.0 °F 32.4 °F 37.0 °F 100% 29.92 in 1.5 mi East 5.8 mph - 0.00 in Rain Light Rain
11:42 AM 37.0 °F 29.3 °F 36.0 °F 96% 29.89 in 2.0 mi ENE 11.5 mph - 0.01 in   Overcast
11:50 AM 37.4 °F 30.3 °F 37.4 °F 100% 29.88 in 1.2 mi ENE 10.4 mph - 0.01 in   Overcast
11:52 AM 37.0 °F 29.8 °F 37.0 °F 100% 29.88 in 1.2 mi East 10.4 mph - 0.01 in   Overcast
12:09 PM 37.9 °F 30.5 °F 37.0 °F 97% 29.86 in 1.0 mi ENE 11.5 mph - 0.00 in Rain Light Rain
12:52 PM 37.0 °F 29.3 °F 37.0 °F 100% 29.83 in 1.0 mi ENE 11.5 mph - 0.01 in   Overcast
1:00 PM 37.0 °F 29.8 °F 37.0 °F 100% 29.81 in 0.5 mi ENE 10.4 mph - N/A Fog Fog
1:52 PM 39.0 °F 32.3 °F 39.0 °F 100% 29.77 in 0.2 mi East 10.4 mph - N/A Fog Fog
2:52 PM 39.0 °F 31.4 °F 37.9 °F 96% 29.74 in 0.2 mi East 12.7 mph - N/A Fog Fog
3:52 PM 37.9 °F 34.4 °F 37.9 °F 100% 29.70 in 0.2 mi East 4.6 mph - N/A Fog Fog
4:52 PM 43.0 °F 38.2 °F 43.0 °F 100% 29.69 in 0.2 mi WSW 8.1 mph - 0.06 in Fog Fog
5:06 PM 44.1 °F 38.1 °F 44.1 °F 100% 29.69 in 0.8 mi WSW 11.5 mph 25.3 mph 0.01 in   Overcast
5:15 PM 44.1 °F 37.7 °F 43.0 °F 96% 29.71 in 0.2 mi West 12.7 mph - 0.01 in Fog Fog
5:25 PM 46.0 °F 41.4 °F 45.0 °F 96% 29.72 in 2.5 mi West 9.2 mph - 0.01 in   Overcast
5:28 PM 45.0 °F 39.3 °F 45.0 °F 100% 29.73 in 7.0 mi West 11.5 mph - 0.01 in   Overcast
5:36 PM 45.0 °F 39.7 °F 45.0 °F 100% 29.74 in 10.0 mi West 10.4 mph - 0.01 in   Overcast
5:52 PM 44.1 °F 39.5 °F 43.0 °F 96% 29.75 in 10.0 mi West 8.1 mph - 0.01 in   Overcast
6:52 PM 37.9 °F 31.5 °F 37.0 °F 97% 29.76 in 8.0 mi SW 9.2 mph - N/A   Overcast
7:52 PM 39.0 °F 34.8 °F 37.9 °F 96% 29.79 in 8.0 mi WSW 5.8 mph - N/A   Overcast
8:52 PM 39.0 °F 34.0 °F 37.0 °F 93% 29.82 in 7.0 mi WSW 6.9 mph - N/A   Mostly Cloudy
9:52 PM 39.9 °F 35.8 °F 37.9 °F 93% 29.85 in 10.0 mi WSW 5.8 mph - N/A   Clear
10:52 PM 36.0 °F - 35.1 °F 97% 29.89 in 10.0 mi Calm Calm - N/A   Clear
11:52 PM 35.1 °F 30.1 °F 34.0 °F 96% 29.91 in 10.0 mi SW 5.8 mph - N/A   Clear